Time,TemperatureF,DewpointF,PressureIn,WindDirection,WindDirectionDegrees,WindSpeedMPH,WindSpeedGustMPH,Humidity,HourlyPrecipIn,Conditions,Clouds,dailyrainin,SoftwareType,DateUTC
2013-02-13 00:00:00,35.4,28.0,29.63,SSE,160,1.0,8.0,74,0.00,,---,0.00,VWS V14.01,2013-02-13 05:00:00,
2013-02-13 00:05:00,35.4,28.0,29.63,SSE,158,4.0,5.0,74,0.00,,---,0.00,VWS V14.01,2013-02-13 05:05:00,
2013-02-13 00:10:00,35.2,27.8,29.63,SSW,207,1.0,5.0,74,0.00,,---,0.00,VWS V14.01,2013-02-13 05:10:00,
2013-02-13 00:15:00,35.0,27.9,29.63,South,171,1.0,5.0,75,0.00,,---,0.00,VWS V14.01,2013-02-13 05:15:00,
2013-02-13 00:20:00,34.8,27.7,29.63,SSW,199,0.0,6.0,75,0.00,,---,0.00,VWS V14.01,2013-02-13 05:20:00,
2013-02-13 00:25:00,34.9,27.8,29.63,SSE,157,3.0,6.0,75,0.00,,---,0.00,VWS V14.01,2013-02-13 05:25:00,
2013-02-13 00:30:00,34.9,27.8,29.63,SSE,150,2.0,6.0,75,0.00,,---,0.00,VWS V14.01,2013-02-13 05:30:00,
2013-02-13 00:35:00,34.7,27.6,29.63,SSE,148,4.0,6.0,75,0.00,,---,0.00,VWS V14.01,2013-02-13 05:35:00,
2013-02-13 00:40:00,34.6,27.5,29.64,SSE,154,4.0,6.0,75,0.00,,---,0.00,VWS V14.01,2013-02-13 05:40:00,
2013-02-13 00:45:00,34.5,27.7,29.63,SSE,148,5.0,6.0,76,0.00,,---,0.00,VWS V14.01,2013-02-13 05:45:00,
2013-02-13 00:50:00,34.5,27.7,29.63,SSE,153,1.0,6.0,76,0.00,,---,0.00,VWS V14.01,2013-02-13 05:50:00,
2013-02-13 00:55:00,34.6,27.8,29.64,SE,141,0.0,6.0,76,0.00,,---,0.00,VWS V14.01,2013-02-13 05:55:00,
2013-02-13 01:00:00,34.6,27.8,29.64,ESE,117,1.0,6.0,76,0.00,,---,0.00,VWS V14.01,2013-02-13 06:00:00,
2013-02-13 01:05:00,34.7,27.9,29.64,SE,142,1.0,2.0,76,0.00,,---,0.00,VWS V14.01,2013-02-13 06:05:00,
2013-02-13 01:10:00,34.7,27.9,29.64,SE,142,5.0,5.0,76,0.00,,---,0.00,VWS V14.01,2013-02-13 06:10:00,
2013-02-13 01:15:00,34.9,28.1,29.63,SE,145,3.0,6.0,76,0.00,,---,0.00,VWS V14.01,2013-02-13 06:15:00,
2013-02-13 01:20:00,34.9,28.1,29.63,SE,141,5.0,7.0,76,0.00,,---,0.00,VWS V14.01,2013-02-13 06:20:00,
2013-02-13 01:25:00,34.9,27.8,29.64,SE,144,3.0,7.0,75,0.00,,---,0.00,VWS V14.01,2013-02-13 06:25:00,
2013-02-13 01:30:00,34.7,27.9,29.64,SE,131,4.0,7.0,76,0.00,,---,0.00,VWS V14.01,2013-02-13 06:30:00,
2013-02-13 01:35:00,34.6,27.8,29.64,ESE,119,3.0,4.0,76,0.00,,---,0.00,VWS V14.01,2013-02-13 06:35:00,
2013-02-13 01:40:00,34.5,27.7,29.64,ESE,106,2.0,6.0,76,0.00,,---,0.00,VWS V14.01,2013-02-13 06:40:00,
2013-02-13 01:45:00,34.1,27.3,29.64,SE,134,3.0,6.0,76,0.00,,---,0.00,VWS V14.01,2013-02-13 06:45:00,
2013-02-13 01:50:00,33.7,27.3,29.64,SE,130,3.0,6.0,77,0.00,,---,0.00,VWS V14.01,2013-02-13 06:50:00,
2013-02-13 01:55:00,33.1,27.0,29.64,SE,130,2.0,6.0,78,0.00,,---,0.00,VWS V14.01,2013-02-13 06:55:00,
2013-02-13 02:00:00,32.7,26.9,29.64,SE,140,3.0,6.0,79,0.00,,---,0.00,VWS V14.01,2013-02-13 07:00:00,
2013-02-13 02:05:00,32.3,26.8,29.64,ESE,123,3.0,4.0,80,0.00,,---,0.00,VWS V14.01,2013-02-13 07:05:00,
2013-02-13 02:10:00,31.9,26.7,29.64,SSE,150,6.0,7.0,81,0.00,,---,0.00,VWS V14.01,2013-02-13 07:10:00,
2013-02-13 02:15:00,31.8,26.6,29.64,SE,135,4.0,7.0,81,0.00,,---,0.00,VWS V14.01,2013-02-13 07:15:00,
2013-02-13 02:20:00,31.8,26.6,29.64,SE,133,5.0,8.0,81,0.00,,---,0.00,VWS V14.01,2013-02-13 07:20:00,
2013-02-13 02:25:00,31.8,26.6,29.64,SE,146,6.0,9.0,81,0.00,,---,0.00,VWS V14.01,2013-02-13 07:25:00,
2013-02-13 02:30:00,31.8,26.6,29.64,SSE,153,3.0,9.0,81,0.00,,---,0.00,VWS V14.01,2013-02-13 07:30:00,
2013-02-13 02:35:00,31.8,26.6,29.64,SSE,156,4.0,4.0,81,0.00,,---,0.00,VWS V14.01,2013-02-13 07:35:00,
2013-02-13 02:40:00,31.9,26.4,29.64,SSE,148,5.0,7.0,80,0.00,,---,0.00,VWS V14.01,2013-02-13 07:40:00,
2013-02-13 02:45:00,31.9,26.4,29.65,SSE,149,3.0,7.0,80,0.00,,---,0.00,VWS V14.01,2013-02-13 07:45:00,
2013-02-13 02:50:00,32.0,26.2,29.65,SSE,153,5.0,7.0,79,0.00,,---,0.00,VWS V14.01,2013-02-13 07:50:00,
2013-02-13 02:55:00,32.2,26.1,29.65,South,180,2.0,7.0,78,0.00,,---,0.00,VWS V14.01,2013-02-13 07:55:00,
2013-02-13 03:00:00,32.3,26.2,29.65,SE,146,3.0,7.0,78,0.00,,---,0.00,VWS V14.01,2013-02-13 08:00:00,
2013-02-13 03:05:00,32.5,26.4,29.65,SE,146,7.0,7.0,78,0.00,,---,0.00,VWS V14.01,2013-02-13 08:05:00,
2013-02-13 03:10:00,32.7,26.3,29.64,SSE,157,4.0,8.0,77,0.00,,---,0.00,VWS V14.01,2013-02-13 08:10:00,
2013-02-13 03:15:00,32.7,26.3,29.64,SSE,168,4.0,8.0,77,0.00,,---,0.00,VWS V14.01,2013-02-13 08:15:00,
2013-02-13 03:20:00,32.7,26.0,29.64,SSE,159,2.0,8.0,76,0.00,,---,0.00,VWS V14.01,2013-02-13 08:20:00,
2013-02-13 03:30:00,32.7,26.0,29.64,SSE,158,5.0,9.0,76,0.00,,---,0.00,VWS V14.01,2013-02-13 08:30:00,
2013-02-13 04:00:00,33.0,26.0,29.65,SSE,158,4.0,12.0,75,0.00,,---,0.00,VWS V14.01,2013-02-13 09:00:00,
2013-02-13 04:30:00,33.6,25.2,29.65,South,180,5.0,15.0,71,0.00,,---,0.00,VWS V14.01,2013-02-13 09:30:00,
2013-02-13 05:00:00,34.2,25.1,29.65,South,180,5.0,13.0,69,0.00,,---,0.00,VWS V14.01,2013-02-13 10:00:00,
2013-02-13 05:30:00,34.4,25.3,29.66,SSW,202,6.0,14.0,69,0.00,,---,0.00,VWS V14.01,2013-02-13 10:30:00,
2013-02-13 06:00:00,34.3,25.2,29.66,South,180,5.0,14.0,69,0.00,,---,0.00,VWS V14.01,2013-02-13 11:00:00,
2013-02-13 06:30:00,34.1,25.0,29.66,SSE,158,5.0,10.0,69,0.00,,---,0.00,VWS V14.01,2013-02-13 11:30:00,
2013-02-13 07:00:00,33.9,25.2,29.67,SSE,158,6.0,12.0,70,0.00,,---,0.00,VWS V14.01,2013-02-13 12:00:00,
2013-02-13 07:30:00,34.0,24.9,29.68,SSE,158,7.0,13.0,69,0.00,,---,0.00,VWS V14.01,2013-02-13 12:30:00,
2013-02-13 08:00:00,34.3,24.5,29.69,SSE,158,7.0,16.0,67,0.00,,---,0.00,VWS V14.01,2013-02-13 13:00:00,
2013-02-13 08:30:00,34.7,24.1,29.70,SSE,158,6.0,14.0,65,0.00,,---,0.00,VWS V14.01,2013-02-13 13:30:00,
2013-02-13 09:00:00,35.9,23.4,29.70,SSE,158,6.0,16.0,60,0.00,,---,0.00,VWS V14.01,2013-02-13 14:00:00,
2013-02-13 09:30:00,37.6,23.8,29.70,SSE,158,6.0,13.0,57,0.00,,---,0.00,VWS V14.01,2013-02-13 14:30:00,
2013-02-13 10:00:00,38.9,24.6,29.70,SSE,158,6.0,14.0,56,0.00,,---,0.00,VWS V14.01,2013-02-13 15:00:00,
2013-02-13 10:30:00,39.2,24.4,29.69,SSE,158,6.0,12.0,55,0.00,,---,0.00,VWS V14.01,2013-02-13 15:30:00,
2013-02-13 11:00:00,40.2,24.5,29.68,SE,135,6.0,13.0,53,0.00,,---,0.00,VWS V14.01,2013-02-13 16:00:00,
2013-02-13 11:30:00,40.9,24.2,29.67,SSE,158,6.0,14.0,51,0.00,,---,0.00,VWS V14.01,2013-02-13 16:30:00,
2013-02-13 12:00:00,43.4,24.0,29.66,South,180,4.0,11.0,46,0.00,,---,0.00,VWS V14.01,2013-02-13 17:00:00,
2013-02-13 12:30:00,44.2,24.8,29.65,SSE,158,4.0,12.0,46,0.00,,---,0.00,VWS V14.01,2013-02-13 17:30:00,
2013-02-13 13:00:00,45.2,24.6,29.65,SSE,158,4.0,11.0,44,0.00,,---,0.00,VWS V14.01,2013-02-13 18:00:00,
2013-02-13 13:30:00,45.1,22.8,29.65,SE,135,4.0,10.0,41,0.00,,---,0.00,VWS V14.01,2013-02-13 18:30:00,
2013-02-13 14:00:00,46.6,25.9,29.65,SE,135,4.0,11.0,44,0.00,,---,0.00,VWS V14.01,2013-02-13 19:00:00,
2013-02-13 14:30:00,43.1,22.7,29.65,SE,135,5.0,13.0,44,0.00,,---,0.00,VWS V14.01,2013-02-13 19:30:00,
2013-02-13 15:00:00,41.8,27.7,29.65,SE,135,5.0,9.0,57,0.00,,---,0.00,VWS V14.01,2013-02-13 20:00:00,
2013-02-13 15:30:00,41.0,28.2,29.65,ESE,112,4.0,11.0,60,0.00,,---,0.00,VWS V14.01,2013-02-13 20:30:00,
2013-02-13 16:00:00,40.1,29.3,29.65,ESE,112,5.0,12.0,65,0.00,,---,0.00,VWS V14.01,2013-02-13 21:00:00,
2013-02-13 16:30:00,37.8,28.2,29.65,East,90,3.0,7.0,68,0.00,,---,0.00,VWS V14.01,2013-02-13 21:30:00,
2013-02-13 17:00:00,37.0,28.5,29.64,East,90,2.0,5.0,71,0.00,,---,0.00,VWS V14.01,2013-02-13 22:00:00,
2013-02-13 17:30:00,35.1,28.3,29.65,East,90,0.0,2.0,76,0.00,,---,0.00,VWS V14.01,2013-02-13 22:30:00,
2013-02-13 18:00:00,32.5,27.0,29.65,South,180,0.0,3.0,80,0.00,,---,0.00,VWS V14.01,2013-02-13 23:00:00,
2013-02-13 18:30:00,31.6,26.8,29.68,South,180,0.0,2.0,82,0.00,,---,0.00,VWS V14.01,2013-02-13 23:30:00,
2013-02-13 19:00:00,32.0,27.1,29.67,South,180,0.0,2.0,82,0.00,,---,0.00,VWS V14.01,2013-02-14 00:00:00,
2013-02-13 19:30:00,32.2,27.6,29.66,South,180,0.0,1.0,83,0.00,,---,0.00,VWS V14.01,2013-02-14 00:30:00,
2013-02-13 20:00:00,32.5,27.3,29.67,South,180,0.0,0.0,81,0.00,,---,0.00,VWS V14.01,2013-02-14 01:00:00,
2013-02-13 20:30:00,32.2,26.7,29.67,South,180,0.0,2.0,80,0.00,,---,0.00,VWS V14.01,2013-02-14 01:30:00,
2013-02-13 21:00:00,31.1,25.4,29.66,South,180,1.0,3.0,79,0.00,,---,0.00,VWS V14.01,2013-02-14 02:00:00,
2013-02-13 21:30:00,30.9,25.5,29.67,South,180,0.0,2.0,80,0.00,,---,0.00,VWS V14.01,2013-02-14 02:30:00,
2013-02-13 22:00:00,30.9,23.6,29.66,WSW,248,0.0,4.0,74,0.00,,---,0.00,VWS V14.01,2013-02-14 03:00:00,
2013-02-13 22:30:00,30.9,24.2,29.67,WSW,248,0.0,3.0,76,0.00,,---,0.00,VWS V14.01,2013-02-14 03:30:00,
2013-02-13 23:00:00,30.5,24.5,29.67,WSW,248,0.0,3.0,78,0.00,,---,0.00,VWS V14.01,2013-02-14 04:00:00,
2013-02-13 23:30:00,30.6,23.3,29.66,WSW,248,0.0,2.0,74,0.00,,---,0.00,VWS V14.01,2013-02-14 04:30:00,